| time (UTC) | temp C | wind direction | speed KPH | gust KPH | rain 1hr cm | rain 24hr cm | rain mn cm | humidity % | barometer mb |
| 20260507032732 | 8 | 282 | 4.8 | 9.7 | 0.00 | 0.05 | 0.00 | 97 | 1010.9 |
| 20260507031729 | 8 | 289 | 6.4 | 11.3 | 0.00 | 0.05 | 0.00 | 97 | 1010.7 |
| 20260507030725 | 8 | 288 | 6.4 | 11.3 | 0.00 | 0.05 | 0.00 | 97 | 1010.7 |
| 20260507025723 | 9 | 296 | 6.4 | 11.3 | 0.00 | 0.05 | 0.00 | 97 | 1010.7 |
| 20260507024719 | 9 | 296 | 6.4 | 11.3 | 0.00 | 0.05 | 0.00 | 96 | 1010.6 |
| 20260507023735 | 9 | 304 | 6.4 | 9.7 | 0.00 | 0.05 | 0.00 | 96 | 1010.7 |
| 20260507022732 | 9 | 293 | 6.4 | 11.3 | 0.00 | 0.05 | 0.00 | 96 | 1010.5 |
| 20260507021728 | 9 | 306 | 6.4 | 11.3 | 0.00 | 0.05 | 0.00 | 96 | 1010.4 |
| 20260507020725 | 9 | 304 | 6.4 | 9.7 | 0.00 | 0.05 | 0.00 | 95 | 1010.4 |
| 20260507015721 | 9 | 315 | 4.8 | 11.3 | 0.00 | 0.05 | 0.00 | 94 | 1010.2 |
| 20260507014717 | 9 | 309 | 6.4 | 9.7 | 0.00 | 0.05 | 0.00 | 94 | 1010.3 |
| 20260507013733 | 10 | 306 | 6.4 | 11.3 | 0.00 | 0.05 | 0.00 | 92 | 1010.3 |
| 20260507012731 | 10 | 301 | 4.8 | 6.4 | 0.00 | 0.05 | 0.00 | 92 | 1010.1 |
| 20260507011727 | 10 | 301 | 4.8 | 9.7 | 0.00 | 0.05 | 0.00 | 91 | 1010.1 |
| 20260507010723 | 10 | 309 | 3.2 | 3.2 | 0.00 | 0.05 | 0.00 | 91 | 1010.1 |
| 20260507005719 | 10 | 302 | 3.2 | 6.4 | 0.00 | 0.05 | 0.00 | 90 | 1010.1 |
| 20260507004736 | 10 | 292 | 3.2 | 6.4 | 0.00 | 0.05 | 0.00 | 89 | 1009.9 |
| 20260507003732 | 10 | 304 | 6.4 | 9.7 | 0.00 | 0.05 | 0.00 | 89 | 1009.9 |
| 20260507002729 | 10 | 317 | 4.8 | 6.4 | 0.00 | 0.08 | 0.00 | 88 | 1009.9 |
| 20260507001725 | 10 | 317 | 8.0 | 12.9 | 0.00 | 0.08 | 0.00 | 88 | 1009.8 |
| 20260507000721 | 10 | 309 | 6.4 | 11.3 | 0.00 | 0.10 | 0.00 | 88 | 1009.8 |
| 20260506235718 | 10 | 316 | 3.2 | 6.4 | 0.00 | 0.13 | 0.00 | 89 | 1009.8 |
| 20260506234734 | 10 | 308 | 6.4 | 11.3 | 0.00 | 0.18 | 0.00 | 89 | 1009.8 |
| 20260506233731 | 10 | 315 | 4.8 | 11.3 | 0.00 | 0.18 | 0.00 | 88 | 1009.8 |
| 20260506232728 | 10 | 315 | 4.8 | 9.7 | 0.00 | 0.20 | 0.00 | 88 | 1009.7 |
| 20260506231724 | 10 | 311 | 8.0 | 14.5 | 0.00 | 0.20 | 0.00 | 88 | 1009.5 |
| 20260506230721 | 10 | 309 | 6.4 | 12.9 | 0.00 | 0.20 | 0.00 | 89 | 1009.5 |
| 20260506225721 | 10 | 306 | 8.0 | 11.3 | 0.00 | 0.20 | 0.00 | 88 | 1009.4 |
| 20260506224734 | 11 | 302 | 9.7 | 16.1 | 0.00 | 0.23 | 0.00 | 88 | 1009.3 |
| 20260506223730 | 11 | 312 | 8.0 | 12.9 | 0.00 | 0.23 | 0.00 | 87 | 1009.3 |
| 20260506222728 | 11 | 308 | 8.0 | 17.7 | 0.00 | 0.23 | 0.00 | 88 | 1009.1 |
| 20260506221728 | 11 | 303 | 8.0 | 12.9 | 0.00 | 0.23 | 0.00 | 88 | 1009.0 |
| 20260506220720 | 11 | 304 | 9.7 | 14.5 | 0.00 | 0.23 | 0.00 | 89 | 1009.0 |
| 20260506215717 | 11 | 303 | 6.4 | 11.3 | 0.00 | 0.23 | 0.23 | 90 | 1009.0 |
| 20260506214733 | 11 | 300 | 6.4 | 11.3 | 0.00 | 0.23 | 0.23 | 91 | 1008.9 |
| 20260506213730 | 11 | 311 | 3.2 | 6.4 | 0.00 | 0.23 | 0.23 | 91 | 1008.9 |
| 20260506212726 | 11 | 323 | 4.8 | 6.4 | 0.00 | 0.23 | 0.23 | 90 | 1008.8 |
| 20260506211723 | 11 | 318 | 4.8 | 9.7 | 0.00 | 0.23 | 0.23 | 90 | 1008.8 |
| 20260506210719 | 11 | 320 | 6.4 | 11.3 | 0.00 | 0.23 | 0.23 | 91 | 1008.6 |
| 20260506205715 | 12 | 323 | 6.4 | 9.7 | 0.00 | 0.23 | 0.23 | 92 | 1008.7 |
| 20260506204733 | 12 | 304 | 6.4 | 9.7 | 0.00 | 0.23 | 0.23 | 92 | 1008.6 |
| 20260506203729 | 12 | 295 | 4.8 | 9.7 | 0.00 | 0.23 | 0.23 | 92 | 1008.6 |
| 20260506202725 | 12 | 294 | 6.4 | 12.9 | 0.00 | 0.23 | 0.23 | 92 | 1008.4 |
| 20260506201721 | 12 | 278 | 4.8 | 6.4 | 0.00 | 0.23 | 0.23 | 92 | 1008.2 |
| 20260506200718 | 12 | 274 | 8.0 | 12.9 | 0.00 | 0.23 | 0.23 | 91 | 1008.2 |
| 20260506195735 | 12 | 271 | 6.4 | 12.9 | 0.00 | 0.23 | 0.23 | 92 | 1008.2 |
| 20260506194731 | 12 | 277 | 4.8 | 9.7 | 0.00 | 0.23 | 0.23 | 92 | 1008.0 |
| 20260506193727 | 12 | 276 | 6.4 | 12.9 | 0.00 | 0.23 | 0.23 | 92 | 1007.8 |
| 20260506192728 | 12 | 290 | 6.4 | 9.7 | 0.00 | 0.23 | 0.23 | 92 | 1007.7 |
| 20260506191720 | 12 | 284 | 8.0 | 11.3 | 0.00 | 0.23 | 0.23 | 92 | 1007.5 |
| 20260506190716 | 12 | 284 | 8.0 | 16.1 | 0.00 | 0.23 | 0.23 | 92 | 1007.5 |
| 20260506185733 | 12 | 300 | 8.0 | 14.5 | 0.00 | 0.23 | 0.23 | 93 | 1007.3 |
| 20260506184741 | 12 | 292 | 3.2 | 4.8 | 0.00 | 0.23 | 0.23 | 94 | 1007.4 |
| 20260506183726 | 12 | 294 | 3.2 | 4.8 | 0.00 | 0.23 | 0.23 | 94 | 1007.1 |
| 20260506182722 | 12 | 311 | 6.4 | 11.3 | 0.00 | 0.23 | 0.23 | 94 | 1006.9 |
| 20260506181719 | 12 | 313 | 8.0 | 14.5 | 0.03 | 0.23 | 0.23 | 93 | 1007.0 |
| 20260506180735 | 13 | 308 | 9.7 | 17.7 | 0.03 | 0.25 | 0.23 | 91 | 1006.9 |
| 20260506175732 | 13 | 297 | 11.3 | 17.7 | 0.03 | 0.25 | 0.23 | 90 | 1006.8 |
| 20260506174728 | 13 | 292 | 9.7 | 14.5 | 0.03 | 0.25 | 0.23 | 91 | 1006.6 |
| 20260506173725 | 13 | 302 | 6.4 | 11.3 | 0.03 | 0.28 | 0.23 | 91 | 1006.4 |
| 20260506172721 | 13 | 303 | 8.0 | 11.3 | 0.03 | 0.28 | 0.23 | 91 | 1006.3 |
| 20260506171717 | 13 | 308 | 11.3 | 22.5 | 0.00 | 0.25 | 0.20 | 89 | 1006.0 |
| 20260506170734 | 15 | 299 | 14.5 | 22.5 | 0.00 | 0.25 | 0.20 | 80 | 1006.0 |
| 20260506165730 | 15 | 286 | 12.9 | 22.5 | 0.00 | 0.25 | 0.20 | 79 | 1006.1 |
| 20260506164727 | 15 | 266 | 11.3 | 17.7 | 0.00 | 0.28 | 0.20 | 78 | 1005.9 |
| 20260506163723 | 15 | 277 | 14.5 | 20.9 | 0.00 | 0.30 | 0.20 | 76 | 1006.0 |
| 20260506162719 | 16 | 280 | 16.1 | 22.5 | 0.00 | 0.33 | 0.20 | 76 | 1006.0 |
| 20260506161716 | 16 | 270 | 14.5 | 24.1 | 0.00 | 0.33 | 0.20 | 75 | 1006.0 |
| 20260506160735 | 16 | 289 | 12.9 | 17.7 | 0.00 | 0.36 | 0.20 | 72 | 1005.8 |
| 20260506155729 | 17 | 288 | 11.3 | 17.7 | 0.00 | 0.38 | 0.20 | 71 | 1005.9 |
| 20260506154725 | 17 | 260 | 11.3 | 17.7 | 0.00 | 0.41 | 0.20 | 70 | 1005.7 |
| 20260506153721 | 17 | 243 | 11.3 | 20.9 | 0.00 | 0.41 | 0.20 | 68 | 1005.6 |
| 20260506152718 | 17 | 240 | 14.5 | 24.1 | 0.00 | 0.41 | 0.20 | 68 | 1005.6 |
| 20260506151738 | 17 | 250 | 12.9 | 17.7 | 0.00 | 0.41 | 0.20 | 67 | 1005.5 |
| 20260506150731 | 17 | 258 | 11.3 | 17.7 | 0.00 | 0.41 | 0.20 | 67 | 1005.5 |
| 20260506145728 | 17 | 244 | 11.3 | 17.7 | 0.00 | 0.41 | 0.20 | 65 | 1005.5 |
| 20260506144724 | 17 | 257 | 8.0 | 14.5 | 0.00 | 0.41 | 0.20 | 66 | 1005.5 |
| 20260506143720 | 17 | 243 | 11.3 | 20.9 | 0.00 | 0.41 | 0.20 | 66 | 1005.6 |
| 20260506142716 | 17 | 246 | 11.3 | 14.5 | 0.00 | 0.41 | 0.20 | 65 | 1005.4 |
| 20260506141733 | 18 | 244 | 11.3 | 14.5 | 0.00 | 0.41 | 0.20 | 65 | 1005.4 |
| 20260506140729 | 18 | 219 | 11.3 | 17.7 | 0.00 | 0.41 | 0.20 | 63 | 1005.5 |
| 20260506135725 | 18 | 261 | 9.7 | 20.9 | 0.00 | 0.41 | 0.20 | 62 | 1005.5 |
| 20260506134727 | 18 | 245 | 14.5 | 22.5 | 0.00 | 0.41 | 0.20 | 61 | 1005.4 |
| 20260506133721 | 18 | 249 | 12.9 | 22.5 | 0.00 | 0.41 | 0.20 | 63 | 1005.5 |
| 20260506132735 | 18 | 244 | 12.9 | 20.9 | 0.00 | 0.41 | 0.20 | 62 | 1005.6 |
| 20260506131731 | 18 | 269 | 11.3 | 24.1 | 0.00 | 0.41 | 0.20 | 61 | 1005.4 |
| 20260506130727 | 18 | 229 | 9.7 | 20.9 | 0.00 | 0.41 | 0.20 | 63 | 1005.5 |
| 20260506125724 | 18 | 244 | 11.3 | 16.1 | 0.00 | 0.41 | 0.20 | 64 | 1005.6 |
| 20260506124720 | 17 | 253 | 12.9 | 22.5 | 0.00 | 0.41 | 0.20 | 66 | 1005.7 |
| 20260506123717 | 17 | 254 | 11.3 | 24.1 | 0.00 | 0.41 | 0.20 | 66 | 1005.8 |
| 20260506122734 | 17 | 240 | 16.1 | 29.0 | 0.00 | 0.41 | 0.20 | 65 | 1005.7 |
| 20260506121729 | 17 | 256 | 16.1 | 25.7 | 0.00 | 0.41 | 0.20 | 66 | 1005.8 |
| 20260506120726 | 18 | 245 | 9.7 | 17.7 | 0.00 | 0.41 | 0.20 | 66 | 1005.8 |
| 20260506115723 | 17 | 258 | 14.5 | 20.9 | 0.00 | 0.41 | 0.20 | 68 | 1005.7 |
| 20260506114719 | 17 | 236 | 14.5 | 22.5 | 0.00 | 0.41 | 0.20 | 67 | 1005.7 |
| 20260506113736 | 17 | 239 | 12.9 | 22.5 | 0.00 | 0.41 | 0.20 | 69 | 1005.7 |
| 20260506112732 | 17 | 237 | 16.1 | 22.5 | 0.00 | 0.41 | 0.20 | 69 | 1005.8 |
| 20260506111728 | 16 | 245 | 12.9 | 20.9 | 0.00 | 0.41 | 0.20 | 72 | 1005.8 |
| 20260506110724 | 16 | 243 | 9.7 | 16.1 | 0.00 | 0.41 | 0.20 | 71 | 1005.9 |
| 20260506105721 | 16 | 244 | 8.0 | 17.7 | 0.00 | 0.41 | 0.20 | 73 | 1006.0 |
| 20260506104717 | 17 | 233 | 4.8 | 9.7 | 0.00 | 0.41 | 0.20 | 72 | 1005.9 |
| 20260506103734 | 16 | 267 | 6.4 | 12.9 | 0.00 | 0.41 | 0.20 | 75 | 1005.9 |
| 20260506102730 | 16 | 257 | 6.4 | 11.3 | 0.00 | 0.41 | 0.20 | 75 | 1006.0 |
| 20260506101726 | 16 | 246 | 6.4 | 11.3 | 0.00 | 0.41 | 0.20 | 76 | 1006.1 |
| 20260506100723 | 16 | 244 | 9.7 | 14.5 | 0.00 | 0.41 | 0.20 | 75 | 1006.2 |
| 20260506095719 | 16 | 250 | 9.7 | 16.1 | 0.00 | 0.41 | 0.20 | 75 | 1006.1 |
| 20260506094716 | 16 | 231 | 8.0 | 16.1 | 0.00 | 0.41 | 0.20 | 74 | 1006.1 |
| 20260506093732 | 16 | 261 | 9.7 | 22.5 | 0.00 | 0.41 | 0.20 | 76 | 1006.2 |
| 20260506092729 | 16 | 246 | 8.0 | 16.1 | 0.00 | 0.41 | 0.20 | 78 | 1006.1 |
| 20260506091725 | 15 | 246 | 11.3 | 17.7 | 0.00 | 0.41 | 0.20 | 77 | 1006.1 |
| 20260506090721 | 16 | 252 | 11.3 | 16.1 | 0.00 | 0.41 | 0.20 | 77 | 1006.1 |
| 20260506085718 | 16 | 250 | 14.5 | 20.9 | 0.00 | 0.41 | 0.20 | 76 | 1006.2 |
| 20260506084734 | 15 | 247 | 11.3 | 16.1 | 0.00 | 0.41 | 0.20 | 80 | 1006.1 |
| 20260506083730 | 15 | 262 | 8.0 | 12.9 | 0.00 | 0.41 | 0.20 | 81 | 1005.9 |
| 20260506082727 | 15 | 263 | 11.3 | 17.7 | 0.00 | 0.41 | 0.20 | 81 | 1006.0 |
| 20260506081723 | 15 | 259 | 9.7 | 14.5 | 0.00 | 0.41 | 0.20 | 82 | 1005.9 |
| 20260506080720 | 15 | 267 | 9.7 | 20.9 | 0.00 | 0.41 | 0.20 | 84 | 1005.9 |
| 20260506072725 | 14 | 224 | 9.7 | 16.1 | 0.00 | 0.41 | 0.20 | 89 | 1006.0 |
| 20260506071722 | 14 | 245 | 11.3 | 16.1 | 0.00 | 0.41 | 0.20 | 89 | 1005.9 |
| 20260506070719 | 14 | 247 | 14.5 | 20.9 | 0.00 | 0.41 | 0.20 | 89 | 1006.0 |
| 20260506061721 | 13 | 215 | 8.0 | 14.5 | 0.00 | 0.41 | 0.20 | 92 | 1005.8 |
| 20260506060719 | 13 | 238 | 11.3 | 17.7 | 0.00 | 0.41 | 0.20 | 91 | 1005.7 |
| 20260506050716 | 12 | 218 | 3.2 | 6.4 | 0.00 | 0.41 | 0.20 | 96 | 1006.0 |
| 20260506044729 | 12 | 256 | 1.6 | 4.8 | 0.00 | 0.41 | 0.20 | 98 | 1005.8 |
| 20260506043725 | 12 | 274 | 1.6 | 3.2 | 0.00 | 0.41 | 0.20 | 98 | 1005.9 |
| 20260506042722 | 12 | 274 | 3.2 | 4.8 | 0.03 | 0.41 | 0.20 | 98 | 1005.9 |
| 20260506041718 | 12 | 264 | 3.2 | 6.4 | 0.03 | 0.41 | 0.20 | 98 | 1005.7 |
| 20260506040735 | 12 | 271 | 4.8 | 6.4 | 0.03 | 0.41 | 0.20 | 98 | 1005.7 |
| 20260506035731 | 12 | 256 | 4.8 | 11.3 | 0.03 | 0.41 | 0.20 | 98 | 1005.9 |
| 20260506034727 | 12 | 267 | 6.4 | 12.9 | 0.03 | 0.41 | 0.20 | 98 | 1006.0 |
| 20260506033724 | 12 | 267 | 4.8 | 6.4 | 0.03 | 0.41 | 0.20 | 97 | 1005.9 |